Weather History for Ann Arbor, MI

Change the Weather History Date:

Friday, June 6, 2014

  Actual Average Record
Temperature  
Mean Temperature 60 °F -  
Max Temperature 79 °F 73 °F 91 °F (1999)
Min Temperature 41 °F 50 °F 37 °F (2007)
Degree Days  
Heating Degree Days 5    
Growing Degree Days 10 (Base 50)    
Moisture  
Dew Point 46 °F    
Average Humidity 59    
Maximum Humidity 96    
Minimum Humidity 31    
Precipitation  
Precipitation 0.00 in - - ()
Sea Level Pressure  
Sea Level Pressure 29.99 in    
Wind  
Wind Speed 2 mph (West)    
Max Wind Speed 8 mph    
Max Gust Speed -    
Visibility 10 miles    
Events      
Averages and records for this station are not official NWS values.
T = Trace of Precipitation, MM = Missing Value Source: NWS Daily Summary

Daily Weather History Graph

Daily Weather History Graph

Search for Another Location

Airport:

Trip Planner

Search our weather history database for the weather conditions in past years. The results will help you decide how hot, cold, wet, or windy it might be!

Date:

Astronomy

Jun. 06, 2014 Rise Set
Actual Time 5:59 AM EDT 9:08 PM EDT
Civil Twilight 5:25 AM EDT 9:42 PM EDT
Nautical Twilight 4:41 AM EDT 10:26 PM EDT
Astronomical Twilight 3:48 AM EDT 11:19 PM EDT
Moon 2:19 PM EDT (6/6) 1:57 AM EDT (6/6)
Length of Visible Light 16h 17m
Length of Day
15h 09m
First Quarter, 58% of the Moon is Illuminated
Jun 6
First Quarter
Jun 13
Full
Jun 19
Last Quarter
Jun 27
New
Jul 5
First Quarter

Hourly Weather History & Observations

Time (EDT) Temp. Dew Point Humidity Pressure Visibility Wind Dir Wind Speed Gust Speed Precip Events Conditions
12:53 AM 55.9 °F 42.1 °F 60% 29.97 in 10.0 mi Calm Calm - N/A   Clear
1:53 AM 54.0 °F 39.9 °F 59% 29.96 in 10.0 mi Calm Calm - N/A   Clear
2:53 AM 46.9 °F 43.0 °F 86% 29.96 in 10.0 mi Calm Calm - N/A   Clear
3:53 AM 45.0 °F 42.1 °F 90% 29.96 in 10.0 mi Calm Calm - N/A   Clear
4:53 AM 41.0 °F 39.9 °F 96% 29.98 in 10.0 mi Calm Calm - N/A   Clear
5:53 AM 44.1 °F 42.1 °F 93% 29.99 in 10.0 mi Calm Calm - N/A   Clear
6:53 AM 46.9 °F 45.0 °F 93% 30.01 in 10.0 mi Calm Calm - N/A   Clear
7:53 AM 57.9 °F 48.0 °F 70% 30.02 in 10.0 mi Calm Calm - N/A   Clear
8:53 AM 63.0 °F 52.0 °F 67% 30.02 in 10.0 mi Variable 3.5 mph - N/A   Clear
9:53 AM 66.9 °F 53.1 °F 61% 30.02 in 10.0 mi Calm Calm - N/A   Clear
11:53 AM 72.0 °F 48.9 °F 44% 30.01 in 10.0 mi West 5.8 mph - N/A   Clear
12:53 PM 75.9 °F 44.1 °F 32% 29.99 in 10.0 mi WSW 8.1 mph - N/A   Clear
1:53 PM 75.0 °F 45.0 °F 34% 29.99 in 10.0 mi North - - N/A   Clear
2:53 PM 79.0 °F 48.0 °F 34% 30.00 in 10.0 mi WNW 8.1 mph - N/A   Clear
3:53 PM 79.0 °F 48.0 °F 34% 29.99 in 10.0 mi Variable 4.6 mph - N/A   Clear
4:53 PM 79.0 °F 48.0 °F 34% 29.98 in 10.0 mi Calm Calm - N/A   Clear
5:53 PM 78.1 °F 48.9 °F 36% 29.97 in 10.0 mi West 6.9 mph - N/A   Clear
6:53 PM 77.0 °F 46.0 °F 33% 29.98 in 10.0 mi NW 8.1 mph - N/A   Partly Cloudy
7:53 PM 75.9 °F 43.0 °F 31% 29.98 in 10.0 mi NNW 6.9 mph - N/A   Clear
8:53 PM 73.0 °F 43.0 °F 34% 29.99 in 10.0 mi Calm Calm - N/A   Clear
9:53 PM 64.0 °F 50.0 °F 60% 30.00 in 10.0 mi SSE 5.8 mph - N/A   Clear
10:53 PM 55.0 °F 50.0 °F 83% 30.02 in 10.0 mi West 3.5 mph - N/A   Clear
11:53 PM 53.1 °F 51.1 °F 93% 30.02 in 10.0 mi Calm Calm - N/A   Clear